Historique des stations

Station météo de Ambillou

Altitude de la station : 68 m







Données météorologiques pour le 04/12/2022
Date
Heure
Températures Humidité Point de rosée Vitesse
du vent
Direction Rafales Windchill Pression Pluviométrie
Cumul
Date
Heure
Températures Humidité Point de rosée Vitesse
du vent
Direction Rafales Windchill Pression Pluviométrie
Cumul
04/12/2022 16:063.3 °C90 %1.8 °C-NE26 km/h3.31011 hPa0.0 mm
04/12/2022 15:513.4 °C90 %1.9 °C-ESE26 km/h3.41011 hPa0.0 mm
04/12/2022 15:363.4 °C89 %1.8 °C-ESE26 km/h3.41011 hPa0.0 mm
04/12/2022 15:213.4 °C89 %1.8 °C-ESE26 km/h3.41011 hPa0.0 mm
04/12/2022 15:063.4 °C89 %1.8 °C-ESE26 km/h3.41010 hPa0.0 mm
04/12/2022 14:513.4 °C89 %1.8 °C-ESE26 km/h3.41010 hPa0.0 mm
04/12/2022 14:363.3 °C89 %1.7 °C-ESE26 km/h3.31010 hPa0.0 mm
04/12/2022 14:213.3 °C89 %1.7 °C-E26 km/h3.31010 hPa0.0 mm
04/12/2022 14:063.4 °C89 %1.8 °C-E26 km/h3.41010 hPa0.0 mm
04/12/2022 13:513.3 °C89 %1.7 °C-ENE26 km/h3.31010 hPa0.0 mm
04/12/2022 13:363.3 °C89 %1.7 °C-E26 km/h3.31010 hPa0.0 mm
04/12/2022 13:213.2 °C89 %1.6 °C-NE26 km/h3.21010 hPa0.0 mm
04/12/2022 13:063.3 °C89 %1.7 °C-NE26 km/h3.31010 hPa0.0 mm
04/12/2022 12:513.2 °C89 %1.6 °C-ENE26 km/h2.11010 hPa0.0 mm
04/12/2022 12:363.0 °C90 %1.5 °C-NE26 km/h1.91010 hPa0.0 mm
04/12/2022 12:213.1 °C90 %1.6 °C-NE26 km/h1.61010 hPa0.0 mm
04/12/2022 12:062.9 °C90 %1.4 °C-NE26 km/h2.91010 hPa0.0 mm
04/12/2022 11:512.8 °C90 %1.3 °C-ENE26 km/h2.81010 hPa0.0 mm
04/12/2022 11:362.7 °C90 %1.2 °C-NE26 km/h2.71010 hPa0.0 mm
04/12/2022 11:212.6 °C90 %1.1 °C-ENE26 km/h1.41010 hPa0.0 mm
04/12/2022 11:062.4 °C90 %0.9 °C-E26 km/h1.21010 hPa0.0 mm
04/12/2022 10:512.4 °C90 %0.9 °C-ENE26 km/h1.21010 hPa0.0 mm
04/12/2022 10:362.4 °C90 %0.9 °C-NE26 km/h0.21010 hPa0.0 mm
04/12/2022 10:212.4 °C90 %0.9 °C-NNE26 km/h0.61010 hPa0.0 mm
04/12/2022 10:062.4 °C90 %0.9 °C-NE26 km/h0.81010 hPa0.0 mm
04/12/2022 09:512.2 °C90 %0.7 °C-E26 km/h0.51010 hPa0.0 mm
04/12/2022 09:362.2 °C90 %0.7 °C-NE26 km/h0.61010 hPa0.0 mm
04/12/2022 09:212.1 °C90 %0.6 °C-NNE26 km/h0.91010 hPa0.0 mm
04/12/2022 09:062.0 °C90 %0.5 °C-NE26 km/h0.31010 hPa0.0 mm
04/12/2022 08:512.1 °C90 %0.6 °C-ENE26 km/h0.31010 hPa0.0 mm
04/12/2022 08:361.9 °C90 %0.4 °C-ENE26 km/h0.01010 hPa0.0 mm
04/12/2022 08:211.9 °C90 %0.4 °C-ENE26 km/h0.61010 hPa0.0 mm
04/12/2022 08:061.9 °C90 %0.4 °C-NNE26 km/h-0.11010 hPa0.0 mm
04/12/2022 07:541.9 °C90 %0.4 °C-NNE26 km/h-0.11009 hPa0.0 mm
04/12/2022 07:371.9 °C90 %0.4 °C-NE26 km/h0.01009 hPa0.0 mm
04/12/2022 07:221.9 °C89 %0.3 °C-ENE26 km/h0.01009 hPa0.0 mm
04/12/2022 07:091.9 °C89 %0.3 °C-NE26 km/h0.01009 hPa0.0 mm
04/12/2022 06:521.9 °C89 %0.3 °C-NE26 km/h-0.11009 hPa0.0 mm
04/12/2022 06:371.9 °C89 %0.3 °C-NE26 km/h-0.21009 hPa0.0 mm
04/12/2022 06:221.9 °C89 %0.3 °C-ENE26 km/h-0.41009 hPa0.0 mm
04/12/2022 06:071.9 °C89 %0.3 °C-ENE26 km/h-0.11010 hPa0.0 mm
04/12/2022 05:521.9 °C89 %0.3 °C-NNE26 km/h-0.21009 hPa0.0 mm
04/12/2022 05:371.9 °C89 %0.3 °C-NNE26 km/h1.91009 hPa0.0 mm
04/12/2022 05:221.9 °C89 %0.3 °C-ENE26 km/h-0.11009 hPa0.0 mm
04/12/2022 05:071.8 °C89 %0.2 °C-NE26 km/h-0.81009 hPa0.0 mm
04/12/2022 04:521.8 °C89 %0.2 °C-NNE26 km/h-0.11009 hPa0.0 mm
04/12/2022 04:371.8 °C89 %0.2 °C-NE26 km/h-0.51009 hPa0.0 mm
04/12/2022 04:221.8 °C89 %0.2 °C-NE26 km/h-0.91009 hPa0.0 mm
04/12/2022 04:071.8 °C89 %0.2 °C-ENE26 km/h-0.61009 hPa0.0 mm
04/12/2022 03:521.8 °C89 %0.2 °C-NNE26 km/h-1.01009 hPa0.0 mm
04/12/2022 03:371.8 °C89 %0.2 °C-NNE26 km/h-1.31010 hPa0.0 mm
04/12/2022 03:221.8 °C89 %0.2 °C-ENE23 km/h-0.61010 hPa0.0 mm
04/12/2022 03:071.8 °C90 %0.3 °C-ENE23 km/h-0.61010 hPa0.0 mm
04/12/2022 02:521.8 °C89 %0.2 °C-E23 km/h-0.41010 hPa0.0 mm
04/12/2022 02:371.8 °C89 %0.2 °C-NE23 km/h-0.31010 hPa0.0 mm
04/12/2022 02:221.9 °C88 %0.1 °C-NE23 km/h-0.51010 hPa0.0 mm
04/12/2022 02:072.1 °C88 %0.3 °C-NE23 km/h-0.31010 hPa0.0 mm
04/12/2022 01:512.2 °C87 %0.3 °C-NE23 km/h-0.21010 hPa0.0 mm
04/12/2022 01:362.2 °C87 %0.3 °C-NE23 km/h-0.41010 hPa0.0 mm
04/12/2022 01:212.2 °C88 %0.4 °C-NE23 km/h-0.61010 hPa0.0 mm
04/12/2022 00:512.2 °C88 %0.4 °C-NE23 km/h0.31010 hPa0.0 mm
04/12/2022 00:362.3 °C88 %0.5 °C-ENE23 km/h-0.81010 hPa0.0 mm
04/12/2022 00:212.3 °C88 %0.5 °C-E19 km/h-0.71010 hPa0.0 mm
04/12/2022 00:062.4 °C88 %0.6 °C-N18 km/h0.11011 hPa0.0 mm


Minima :

Température : 1.8 °C
Humidité : 87 %
Point de rosée : 0.1 °C
Vent moyen : - km/h
Windchill : -1.3
Pression atm. : 1009 hPa
Maxima :

Température : 3.4 °C
Humidité : 90 %
Point de rosée : 1.9 °C
Vent moyen : 0 km/h
Windchill : 3.4
Pression atm. : 1011 hPa
Rafales max : 26 km/h
Cumul de pluie sur 24H : 0 mm

Ambillou est une commune du département Indre-et-Loire (37).
La station météorologique du réseau de l'association la plus proche de Ambillou n'a pas encore été identifiée.



Icône Facebook Association Météo Centre Icône Twitter Association Météo Centre Icône Chaîne Youtube Association Météo Centre Icône contact Association Météo Centre Icône Insta Association Météo Centre